User: anonymous   Login
Location: Allison's Woods
(35.8809°N, 80.8140°W)
Time: 03:47:22
(UTC-04:00)
Language:

Iridium 39 - Orbit

View from above orbital plane
View from above orbital plane
View from above satellite
View from above satellite

Ground track
Ground track

The orbit data is extracted from the following two-line orbital elements,

1 25042U 97069D   16179.70634946  .00000044  00000-0  79734-5 0  9990
2 25042  86.3981 170.4014 0004364 106.9664 253.2012 14.37447703975495
Epoch (UTC): 27 June 2016 16:57:08
Eccentricity: 0.0004364
inclination: 86.3981°
perigee height: 764 km
apogee height: 770 km
right ascension of ascending node: 170.4014°
argument of perigee: 106.9664°
revolutions per day: 14.37447703
mean anomaly at epoch: 253.2012°
orbit number at epoch: 97549

The dashed part of the orbit path shows where the satellite is in the earth's shadow,  

DLR